User: anonymous   Login
Location: Grassland Mountain Observatory
(35.7543°N, 82.8038°W)
Time: 17:08:23
(UTC-04:00)
Language:

Envisat - Orbit

View from above orbital plane
View from above orbital plane
View from above satellite
View from above satellite

Ground track
Ground track

The orbit data is extracted from the following two-line orbital elements,

1 27386U 02009A   22147.52204751  .00000189  00000-0  75803-4 0  9994
2 27386  98.1824 129.6127 0001293  87.9133  22.6056 14.38125564 60527
Epoch (UTC): 27 May 2022 12:31:44
Eccentricity: 0.0001293
inclination: 98.1824°
perigee height: 764 km
apogee height: 765 km
right ascension of ascending node: 129.6127°
argument of perigee: 87.9133°
revolutions per day: 14.38125564
mean anomaly at epoch: 22.6056°
orbit number at epoch: 6052

The dashed part of the orbit path shows where the satellite is in the earth's shadow,  

DLR